Weather History for KFXE - November, 2013

Change the Weather History Date:

Wednesday, November 6, 2013

  Actual Average Record
Temperature  
Mean Temperature 78 °F -  
Max Temperature 84 °F 82 °F 91 °F (1986)
Min Temperature 73 °F 64 °F 45 °F (1970)
Cooling Degree Days 14    
Growing Degree Days 28 (Base 50)    
Moisture  
Dew Point 69 °F    
Average Humidity 72    
Maximum Humidity 87    
Minimum Humidity 60    
Precipitation  
Precipitation 0.00 in - - ()
Sea Level Pressure  
Sea Level Pressure 30.03 in    
Wind  
Wind Speed 13 mph (ENE)    
Max Wind Speed 18 mph    
Max Gust Speed 26 mph    
Visibility 10 miles    
Events      
Averages and records for this station are not official NWS values.
T = Trace of Precipitation, MM = Missing Value Source: NWS Daily Summary

Daily Weather History Graph

Daily Weather History Graph

Search for Another Location

Airport or City:

Trip Planner

Search our weather history database for the weather conditions in past years. The results will help you decide how hot, cold, wet, or windy it might be!

Date:

Astronomy

Nov. 06, 2013 Rise Set
Actual Time 6:33 AM EST 5:35 PM EST
Civil Twilight 6:09 AM EST 5:59 PM EST
Nautical Twilight 5:41 AM EST 6:26 PM EST
Astronomical Twilight 5:14 AM EST 6:54 PM EST
Moon 9:38 AM EST (11/6) 8:44 PM EST (11/6)
Length of Visible Light 11h 50m
Length of Day
11h 02m
Waxing Crescent, 13% of the Moon is Illuminated
Nov 6
Waxing Crescent
Nov 10
First Quarter
Nov 17
Full
Nov 25
Last Quarter
Dec 2
New

Hourly Weather History & Observations

Time (EST) Temp. Heat Index Dew Point Humidity Pressure Visibility Wind Dir Wind Speed Gust Speed Precip Events Conditions
12:53 AM 78.1 °F - 69.1 °F 74% 30.04 in 10.0 mi ENE 16.1 mph 26.5 mph N/A   Scattered Clouds
1:53 AM 78.1 °F - 69.1 °F 74% 30.03 in 10.0 mi ENE 13.8 mph 24.2 mph N/A   Scattered Clouds
2:53 AM 78.1 °F - 70.0 °F 76% 30.01 in 10.0 mi ENE 18.4 mph 23.0 mph N/A   Mostly Cloudy
3:53 AM 77.0 °F - 69.1 °F 76% 30.01 in 10.0 mi ENE 15.0 mph - N/A   Mostly Cloudy
4:53 AM 78.1 °F - 69.1 °F 74% 30.02 in 10.0 mi ENE 16.1 mph 21.9 mph N/A   Mostly Cloudy
5:53 AM 77.0 °F - 69.1 °F 76% 30.03 in 10.0 mi ENE 16.1 mph 21.9 mph N/A   Mostly Cloudy
6:53 AM 78.1 °F - 69.1 °F 74% 30.05 in 10.0 mi ENE 13.8 mph 23.0 mph N/A   Scattered Clouds
7:53 AM 79.0 °F - 69.1 °F 72% 30.06 in 10.0 mi ENE 15.0 mph - N/A   Scattered Clouds
8:53 AM 81.0 °F 84.1 °F 69.1 °F 67% 30.06 in 10.0 mi ENE 16.1 mph 26.5 mph N/A   Scattered Clouds
9:53 AM 81.0 °F 84.4 °F 70.0 °F 69% 30.07 in 10.0 mi East 18.4 mph 25.3 mph N/A   Mostly Cloudy
10:53 AM 82.9 °F 87.0 °F 70.0 °F 65% 30.07 in 10.0 mi ENE 16.1 mph 24.2 mph N/A   Scattered Clouds
11:53 AM 82.9 °F 86.5 °F 69.1 °F 63% 30.05 in 10.0 mi ENE 16.1 mph 21.9 mph N/A   Scattered Clouds
12:53 PM 82.9 °F 85.8 °F 68.0 °F 60% 30.04 in 10.0 mi ENE 12.7 mph - N/A   Scattered Clouds
1:53 PM 84.0 °F 87.8 °F 69.1 °F 61% 30.02 in 10.0 mi ENE 9.2 mph - N/A   Scattered Clouds
2:53 PM 82.9 °F 86.5 °F 69.1 °F 63% 30.01 in 10.0 mi ENE 11.5 mph - N/A   Scattered Clouds
3:53 PM 81.0 °F 84.1 °F 69.1 °F 67% 30.01 in 10.0 mi NE 10.4 mph - N/A   Scattered Clouds
4:53 PM 80.1 °F 82.9 °F 69.1 °F 69% 30.01 in 10.0 mi NE 8.1 mph - N/A   Scattered Clouds
5:53 PM 79.0 °F - 69.1 °F 72% 30.02 in 10.0 mi NNE 6.9 mph - N/A   Partly Cloudy
6:53 PM 78.1 °F - 69.1 °F 74% 30.02 in 10.0 mi NE 4.6 mph - N/A   Partly Cloudy
7:53 PM 77.0 °F - 69.1 °F 76% 30.03 in 10.0 mi NE 3.5 mph - N/A   Clear
8:53 PM 77.0 °F - 70.0 °F 79% 30.04 in 10.0 mi NE 3.5 mph - N/A   Clear
9:53 PM 75.0 °F - 69.1 °F 82% 30.05 in 10.0 mi Calm Calm - N/A   Clear
10:53 PM 73.9 °F - 70.0 °F 87% 30.04 in 10.0 mi North 3.5 mph - N/A   Scattered Clouds
11:53 PM 73.0 °F - 69.1 °F 87% 30.02 in 10.0 mi Calm Calm - N/A   Partly Cloudy